Flag for Norway Weather past 2 weeks in Porsgrunn, Norway

Now
55 °F

Cool.


Feels Like: 50 °F
Forecast: 52 / 59 °F
Wind: 16 mph from Southwest

Location: Jomfruland Fyr

Current Time: Oct 26, 2014 at 8:55:23 AM

Latest Report: Oct 26, 2014 at 8:00 AM


Visibility: N/A

Pressure: 29.75 "Hg

Humidity: 81%

Dew point: 49 °F

Location of PorsgrunnLocation

Historic Weather in Porsgrunn — Graph

°F

Porsgrunn temperature yesterday

Maximum temperature yesterday: 54 °F (at 3:00 PM)
Minimum temperature yesterday: 50 °F (at 9:00 AM)
Average temperature yesterday: 52 °F

Past Weeks' High & Low Weather Summary

 TemperatureHumidityPressure
High60 °F (Oct 20, 3:00 PM)97% (Oct 19, 3:00 AM)30.06 "Hg (Oct 19, 3:00 AM)
Low38 °F (Oct 16, 9:00 PM)61% (Oct 12, 4:00 PM)29.32 "Hg (Oct 20, 1:00 AM)
Average49 °F88%29.80 "Hg
* Reported Oct 11 8:00 AM — Oct 26 7:00 AM, Porsgrunn, Weather by CustomWeather, © 2014

Note: Actual official high and low records may vary slightly from our data, if they occured in-between our weather recording intervals... More about our weather records

Advertising

Porsgrunn weather history for previous 24 hours

 ConditionsComfort  
Time TempWeatherWind HumidityBarometerVisibility
7:00 AM
Oct 26
54 °FCool.17 mph84%29.75 "HgN/A
6:00 AM54 °FCool.15 mph87%29.76 "HgN/A
5:00 AM54 °FCool.15 mph86%29.77 "HgN/A
4:00 AM54 °FCool.16 mph86%29.78 "HgN/A
3:00 AM54 °FCool.14 mph84%29.79 "HgN/A
2:00 AM54 °FCool.14 mph87%29.80 "HgN/A
2:00 AM54 °FCool.14 mph85%29.81 "HgN/A
1:00 AM54 °FCool.15 mph85%29.80 "HgN/A
12:00 AM54 °FCool.15 mph82%29.81 "HgN/A
11:00 PM
Oct 25
54 °FCool.13 mph83%29.83 "HgN/A
10:00 PM54 °FCool.14 mph84%29.82 "HgN/A
9:00 PM54 °FCool.13 mph84%29.83 "HgN/A
8:00 PM53 °FCool.13 mph84%29.83 "HgN/A
7:00 PM53 °FCool.12 mph81%29.83 "HgN/A
6:00 PM53 °FCool.13 mph82%29.83 "HgN/A
5:00 PM53 °FCool.14 mph81%29.82 "HgN/A
4:00 PM54 °FCool.12 mph81%29.83 "HgN/A
3:00 PM54 °FCool.9 mph79%29.84 "HgN/A
2:00 PM54 °FCool.10 mph81%29.83 "HgN/A
1:00 PM53 °FCool.5 mph88%29.85 "HgN/A
12:00 PM51 °FCool.3 mph88%29.85 "HgN/A
11:00 AM50 °FCool.6 mph86%29.84 "HgN/A
10:00 AM51 °FCool.7 mph87%29.83 "HgN/A
9:00 AM50 °FCool.6 mph90%29.82 "HgN/A
8:00 AM50 °FCool.5 mph89%29.80 "HgN/A
Weather by CustomWeather, © 2014

See weather overviewHow to use our weather pages